Weather in Yuruzan

Russia / Chelyabinsk Oblast     54°51′16″N   58°25′21″E
temp.,
°C
wind,
m/s
gust,
m/s
humid.,
%
clouds,
%
prec.,
mm/h
press.,
hPa
HPBL,
m
19 may, wed
wed1923:00+14ene11762 0.1 101716
02:00+12ese24897 0.1 101997
05:00+10ese22931 0.1 102045
08:00+14ese346946 0.0 1020690
11:00+18ese34480 0.0 10211062
14:00+21e45313 0.0 10201590
17:00+21ese33342 0.0 10201609
20:00+17ese255174 0.0 1021167
20 may, thu
thu2023:00+11se22710 0.0 102227
02:00+9se218090 0.0 102320
05:00+8se21835 0.0 102412
08:00+14se125612 0.0 1023327
11:00+20sse223337 0.0 10221343
14:00+23sse34250 0.0 10201888
17:00+23sse44250 0.0 10201982
20:00+19sse36402 0.0 1020178
21 may, fri
fri2123:00+12sse22561 0.0 102018
02:00+11se22625 0.0 102115
05:00+10se22620 0.0 102117
08:00+18se26400 0.0 1020421
11:00+22s46290 0.0 10191686
14:00+25ssw5728100 0.0 10172939
17:00+21sw3648100 0.0 10191419
20:00+18ssw225998 0.0 101955
22 may, sat
sat2223:00+14sse117329 0.0 102011
02:00+12sse11790 0.0 102012
05:00+11s228051 0.0 102115
08:00+17sw1264100 0.0 1021314
11:00+21w454575 0.1 10212015
14:00+23w453395 0.0 10202081
17:00+22w563867 0.0 10212055
20:00+19w365469 0.0 1021379
23 may, sun
sun2323:00+13s217486 0.0 102213
02:00+12s227956 0.0 102224
05:00+13wsw1281100 0.0 102253
08:00+12wsw1088100 0.3 1025216
11:00+20n015510 0.4 1024765
14:00+21n115098 0.0 1023997
17:00+22nnw2242100 0.0 1022972
20:00+19ene1170100 0.0 102225